sat.trackr.live / text

‹ back to catalog

STARLINK-3850

NORAD 52342 · 2022-045M

PAYLOAD ACTIVE UNKNOWN

§ Identity

Operator
Country
US
Launch date
2022-04-29
Launch site
AFETR
Launch vehicle
Mass (kg)
RCS (m²)

Purposes: comms

External: N2YO · Heavens-Above · Gunter

§ Orbital elements

Epoch: 2026-05-24T21:38:37.694688Z

Period
95.44 min
Inclination
53.2136°
Eccentricity
0.0001316
Mean motion
15.08834216 rev/d
Perigee alt
538.9 km
Apogee alt
540.7 km
Semi-major
6,917.9 km
B*
1.5339e-5
RAAN
217.1084°
Arg perigee
90.7910°
Mean anomaly
269.3233°
Rev number
22,728

§ Raw data

STARLINK-38501 52342U 22045M   26144.90182517 -.00000044  00000+0  15339-4 0  99922 52342  53.2136 217.1084 0001316  90.7910 269.3233 15.08834216227285

JSON: /api/v1/satellites/52342 · /tle

For live sub-satellite position, see the globe view (requires WebGL).

§ Visibility from observer

Set your observer location to see the next 7 days of passes ≥ 10°. The values pass through the URL so the page stays shareable.

No JS? Fill the form by hand. The geolocation button needs JavaScript.